• Join FlightAware (Why Join?)
  • Login
  • US Flag 
08:31AM EDT


 

Airport Tracker/Info


-or-


 

Live Flight TrackerFlight Track Log ✈ EJA831 ✈ 03-May-2013 ✈ KIAD - KPOU

Flight Track Log - Related Links

Times and Time Zones

All times are in EDT time to prevent confusion due to time zone crossing. See the EJA831 flight status page for this flight to view local times or setup timezone preferences in your user account.

Time Position Orientation Groundspeed Altitude Reporting Facility
EDT Latitude Longitude Course Direction KTS MPH feet Rate Location/Type
11:09AM 38.9000 -77.4500 237° Southwest 215 247 2,300  Level Potomac TRACON
11:10AM 38.8667 -77.5167 237° Southwest 269 310 4,900 1,560 Climbing Potomac TRACON
11:11AM 38.9167 -77.5500 333° Northwest 268 308 5,500 1,020 Climbing Potomac TRACON
11:12AM 39.0000 -77.5500 360° North 287 330 7,000 1,560 Climbing Potomac TRACON
11:13AM 39.0667 -77.5333 11° North 276 318 8,700 960 Climbing Potomac TRACON
11:15AM 39.1500 -77.5167 North 279 321 9,000 120 Climbing Potomac TRACON
11:16AM 39.1833 -77.4333 63° Northeast 267 307 9,000 300 Level Potomac TRACON
11:18AM 39.2586 -77.2400 63° Northeast 282 325 10,100 960 Climbing Washington Center
11:19AM 39.2975 -77.1364 64° Northeast 287 330 12,400 2,160 Climbing Washington Center
11:20AM 39.3342 -77.0325 65° Northeast 299 344 14,500 1,260 Climbing Washington Center
11:21AM 39.3231 -76.9089 97° East 318 366 15,000 1,080 Climbing Washington Center
11:22AM 39.3075 -76.7878 99° East 327 376 16,700 1,800 Climbing Washington Center
11:23AM 39.2900 -76.6669 101° East 333 383 18,600 2,040 Climbing Washington Center
11:24AM 39.2722 -76.5406 100° East 344 396 20,900 1,800 Climbing Washington Center
11:25AM 39.2567 -76.4092 99° East 357 411 22,300 1,020 Climbing Washington Center
11:26AM 39.2386 -76.2669 99° East 372 428 23,000 300 Climbing Washington Center
11:27AM 39.2247 -76.1219 97° East 392 451 23,000  Level Washington Center
11:28AM 39.2400 -75.9883 82° East 397 457 23,000  Level Washington Center
11:29AM 39.3047 -75.8814 52° Northeast 361 415 23,000  Level Washington Center
11:30AM 39.3656 -75.7742 54° Northeast 361 415 23,000  Level Washington Center
11:31AM 39.4322 -75.6614 53° Northeast 373 429 23,000  Level Washington Center
11:32AM 39.4928 -75.5539 54° Northeast 373 429 23,000  Level Washington Center
11:33AM 39.5592 -75.4408 53° Northeast 383 441 23,000  Level Washington Center
11:35AM 39.7006 -75.2147 51° Northeast 378 435 23,000  Level New York Center
11:36AM 39.7711 -75.1111 48° Northeast 371 427 23,000  Level New York Center
11:37AM 39.8392 -75.0153 47° Northeast 371 427 23,000  Level New York Center
11:38AM 39.9094 -74.9114 49° Northeast 371 427 23,000  Level New York Center
11:39AM 39.9878 -74.8186 42° Northeast 371 427 23,000  Level New York Center
11:41AM 40.1261 -74.6147 48° Northeast 371 427 23,000  Level New York Center
11:42AM 40.1958 -74.5128 48° Northeast 371 427 23,000  Level New York Center
11:43AM 40.2583 -74.3856 57° Northeast 376 433 23,000  Level New York Center
11:44AM 40.3161 -74.2689 57° Northeast 376 433 23,000  Level New York Center
11:45AM 40.3736 -74.1544 57° Northeast 376 433 23,000  Level New York Center
11:46AM 40.4308 -74.0403 57° Northeast 376 433 23,000  Level New York Center
11:48AM 40.5286 -73.8489 56° Northeast 380 437 23,000  Level Boston Center
11:49AM 40.5842 -73.7325 58° Northeast 373 429 23,000  Level Boston Center
11:50AM 40.6331 -73.6269 59° Northeast 373 429 23,000 -300 Level Boston Center
11:51AM 40.6947 -73.5047 56° Northeast 373 429 22,500 -1,200 Descending Boston Center
11:52AM 40.7458 -73.3906 59° Northeast 373 429 20,700 -1,800 Descending Boston Center
11:53AM 40.8050 -73.2928 51° Northeast 345 397 19,000 -900 Descending Boston Center
11:54AM 40.8744 -73.2142 41° Northeast 328 377 19,000 -480 Level Boston Center
11:55AM 40.9436 -73.1325 42° Northeast 328 377 18,100 -1,500 Descending Boston Center
11:56AM 41.0150 -73.0508 41° Northeast 328 377 16,100 -1,800 Descending Boston Center
11:57AM 41.1006 -73.0294 11° North 314 361 14,500 -1,740 Descending Boston Center
11:58AM 41.1814 -73.0964 328° Northwest 294 338 12,700 -1,800 Descending Boston Center
11:59AM 41.2581 -73.1608 328° Northwest 309 356 11,000 -900 Descending Boston Center
12:00PM 41.3369 -73.2281 327° Northwest 321 369 11,000  Level Boston Center
12:01PM 41.4156 -73.2925 328° Northwest 332 382 11,000  Level Boston Center
12:02PM 41.4983 -73.3686 325° Northwest 332 382 11,000 -1,140 Level Boston Center
12:04PM 41.6667 -73.5167 327° Northwest 256 295 7,100 -1,800 Descending New York TRACON
12:05PM 41.7333 -73.5833 323° Northwest 270 311 4,900 -1,500 Descending New York TRACON
12:06PM 41.7167 -73.6667 255° West 230 265 4,100 -660 Descending New York TRACON
12:07PM 41.6833 -73.7333 236° Southwest 187 215 3,600 -1,200 Descending New York TRACON
12:08PM 41.6500 -73.7833 228° Southwest 208 239 1,800 -900 Descending New York TRACON
12:09PM 41.6167 -73.8333 228° Southwest 181 208 1,800 -60 Level New York TRACON
12:10PM 41.5833 -73.8667 217° Southwest 168 193 1,700 -240 Descending New York TRACON
12:11PM 41.6000 -73.9167 294° West 137 158 1,400 -300 Descending New York TRACON
12:13PM 41.6167 -73.8833 56° Northeast  Level FlightAware Approximate
12:20PM 41.6266 -73.8842 56° Northeast  Level Estimated
12:21PM 41.6266 -73.8842 56° Northeast  Level Estimated